Waarnemingen

Advertentie
Mijn weer
Tännäs, Zweden (2308): temperatuur & dauwpunt: 11.11.2017 18:00:00 - 17.11.2017 18:00:00 (CET)Tännäs, Zweden (2308): windsnelheid & windstoten: 11.11.2017 18:00:00 - 17.11.2017 18:00:00 (CET)Tännäs, Zweden (2308): windrichting: 11.11.2017 18:00:00 - 17.11.2017 18:00:00 (CET)Tännäs, Zweden (2308): luchtdruk: 11.11.2017 18:00:00 - 17.11.2017 18:00:00 (CET)Tännäs, Zweden (2308): zicht: 11.11.2017 18:00:00 - 17.11.2017 18:00:00 (CET)Tännäs, Zweden (2308): neerslag: 11.11.2017 18:00:00 - 17.11.2017 18:00:00 (CET)
Datum & Tijd tt [°C] td [°C] ff [km/u] ff [kn] fx [km/u] fx [kn] dd ppp [hPa] vv [km] rr [mm]
17.11.2017 18:00:00 -2,1 -6,4 8 4 24 13 W 998,2 50 0,0
17.11.2017 17:00:00 -1,9 -5,4 8 4 23 12 WZW 998,4 50 0,0
17.11.2017 16:00:00 -1,5 -4,7 9 5 37 20 WZW 998,5 50 0,0
17.11.2017 15:00:00 -1,2 -4,9 9 5 31 17 WZW 998,3 50 0,0
17.11.2017 14:00:00 -1,2 -5,2 8 5 28 15 W 998,6 50 0,0
17.11.2017 13:00:00 -1,2 -5,1 9 5 29 16 WZW 998,6 50 0,0
17.11.2017 12:00:00 -1,4 -5,6 9 5 32 17 ZW 998,7 50 0,0
17.11.2017 11:00:00 -1,8 -6,5 9 5 30 16 W 999,0 50 0,0
17.11.2017 10:00:00 -2,3 -8,4 5 3 18 10 WZW 998,9 50 0,0
17.11.2017 09:00:00 -3,8 -7,6 5 3 14 7 NNW 999,5 50 0,0
17.11.2017 08:00:00 -2,9 -8,4 10 6 29 16 WZW 999,4 50 0,0
17.11.2017 07:00:00 -3,2 -7,5 7 4 29 15 W 999,7 50 0,0
17.11.2017 06:00:00 -2,9 -5,2 6 3 24 13 WZW 999,3 50 0,0
17.11.2017 05:00:00 -1,7 -3,6 4 2 22 12 WNW 999,5 50 0,0
17.11.2017 04:00:00 -2,3 -3,7 2 1 19 11 ZW 999,4 50 0,0
17.11.2017 03:00:00 -1,2 -3,4 6 4 23 13 WNW 999,6 50 0,1
17.11.2017 02:00:00 -2,0 -4,0 3 2 27 14 NNO 998,9 50 0,0
17.11.2017 01:00:00 -0,4 -3,4 9 5 24 13 W 997,8 50 0,0
17.11.2017 00:00:00 -1,4 -2,1 2 1 21 11 WNW 998,0 50 0,0
16.11.2017 23:00:00 -0,1 -1,1 4 2 15 8 WZW 998,0 50 0,0
16.11.2017 22:00:00 -0,5 -1,2 7 4 16 8 ZZW 997,7 20 0,1
16.11.2017 21:00:00 -0,6 -1,2 4 2 22 12 ZZW 999,2 11 0,1
16.11.2017 20:00:00 -0,9 -1,5 9 5 25 13 Z 1000,2 2,9 0,2
16.11.2017 19:00:00 -1,2 -2,0 10 5 27 14 Z 1001,6 4,7 0,1
16.11.2017 18:00:00 -1,4 -2,7 3 2 17 9 OZO 1002,7 10 0,1
16.11.2017 17:00:00 -0,7 -2,4 9 5 27 15 Z 1004,2 11 0,1
16.11.2017 16:00:00 -0,5 -3,0 7 4 26 14 ZZW 1005,4 9 0,1
16.11.2017 15:00:00 -1,5 -4,3 10 5 25 14 Z 1006,3 39 0,0
16.11.2017 14:00:00 -2,0 -5,2 10 5 22 12 Z 1008,0 50 0,0
16.11.2017 13:00:00 -2,0 -5,5 8 4 23 13 ZZW 1009,1 50 0,0
16.11.2017 12:00:00 -1,8 -6,0 6 4 21 11 ZZO 1010,2 50 0,0
16.11.2017 11:00:00 -3,0 -7,0 6 3 19 10 ZZO 1011,8 50 0,0
16.11.2017 10:00:00 -4,0 -7,3 5 3 15 8 Z 1012,8 50 0,0
16.11.2017 09:00:00 -4,6 -7,5 2 1 6 3 ZZO 1014,1 50 0,0
16.11.2017 08:00:00 -3,8 -7,4 2 1 11 6 ZO 1014,5 50 0,0
16.11.2017 07:00:00 -3,6 -6,4 3 2 15 8 ZO 1015,2 50 0,0
16.11.2017 06:00:00 -3,0 -6,1 4 2 23 12 WZW 1015,9 50 0,0
16.11.2017 05:00:00 -2,7 -5,8 4 2 16 9 Z 1016,2 50 0,0
16.11.2017 04:00:00 -3,4 -5,4 3 2 20 11 ZO 1016,2 50 0,0
16.11.2017 03:00:00 -3,5 -5,2 3 1 26 14 W 1016,1 50 0,0
16.11.2017 02:00:00 -2,6 -5,1 6 4 21 12 W 1016,1 50 0,0
16.11.2017 01:00:00 -1,9 -4,4 7 4 29 16 WNW 1015,1 50 0,0
16.11.2017 00:00:00 -1,6 -4,8 9 5 37 20 WNW 1014,4 50 0,0
15.11.2017 23:00:00 -1,5 -4,3 14 7 44 24 WNW 1013,6 50 0,0
15.11.2017 22:00:00 -1,7 -4,5 13 7 32 17 WNW 1013,4 50 0,0
15.11.2017 21:00:00 -1,7 -4,7 10 5 31 17 WNW 1013,1 50 0,0
15.11.2017 20:00:00 -1,7 -4,9 9 5 31 17 WNW 1012,5 50 0,0
15.11.2017 19:00:00 -2,0 -5,3 13 7 29 16 W 1012,1 50 -
15.11.2017 18:00:00 -1,8 -5,3 11 6 - - WNW 1011,3 50 -
15.11.2017 17:00:00 -1,6 -5,4 10 6 41 22 W 1010,7 50 -
15.11.2017 16:00:00 -1,9 -5,7 5 3 21 11 WNW 1010,2 50 -
15.11.2017 15:00:00 -1,7 -5,0 5 3 26 14 W 1009,6 50 -
15.11.2017 14:00:00 -1,0 -5,0 13 7 31 17 WNW 1008,9 50 -
15.11.2017 13:00:00 -0,6 -5,0 8 5 24 13 W 1008,1 50 -
15.11.2017 12:00:00 -0,3 -4,9 6 4 20 11 W 1007,2 50 -
15.11.2017 11:00:00 -0,6 -4,3 9 5 39 21 W 1006,5 50 -
15.11.2017 10:00:00 -1,2 -3,7 8 5 21 11 WNW 1005,8 50 -
15.11.2017 09:00:00 -1,9 -3,5 5 3 18 10 WNW 1005,5 50 -
15.11.2017 08:00:00 -1,9 -3,0 4 2 18 10 NW 1005,1 50 -
15.11.2017 07:00:00 -1,0 -4,0 8 4 26 14 WNW 1004,6 7 -
15.11.2017 06:00:00 -1,7 -5,5 4 2 21 11 ZW 1004,1 50 -
15.11.2017 05:00:00 -3,2 -5,8 5 3 13 7 ZZW 1004,7 50 -
15.11.2017 04:00:00 -3,4 -6,0 3 2 17 9 ZZW 1005,5 50 -
15.11.2017 03:00:00 -2,1 -5,8 4 2 17 9 ZZW 1006,1 50 -
15.11.2017 02:00:00 -2,8 -5,8 3 1 14 8 ZZO 1006,6 50 -
15.11.2017 01:00:00 -2,1 -4,8 4 2 15 8 ZW 1006,4 50 -
15.11.2017 00:00:00 -1,5 -3,8 3 1 16 9 ZO 1006,4 50 -
14.11.2017 23:00:00 -0,7 -3,6 7 4 18 10 WNW 1006,1 50 -
14.11.2017 22:00:00 -1,6 -3,5 5 3 19 10 ZW 1006,3 44 -
14.11.2017 21:00:00 -1,6 -3,8 3 2 24 13 NNW 1005,9 50 -
14.11.2017 20:00:00 -2,1 -4,8 5 3 32 18 ZW 1005,4 50 -
14.11.2017 19:00:00 -2,0 -5,5 15 8 36 19 WNW 1004,4 50 -
14.11.2017 18:00:00 -3,6 -6,7 4 2 19 10 ZW 1004,5 50 -
14.11.2017 17:00:00 -4,8 -6,5 3 1 10 5 ZZW 1004,5 50 -
14.11.2017 16:00:00 -4,3 -6,4 5 3 12 6 W 1004,4 50 -
14.11.2017 15:00:00 -4,2 -6,2 4 2 16 9 WZW 1004,1 50 -
14.11.2017 14:00:00 -4,8 -6,8 5 3 13 7 WNW 1004,1 50 -
14.11.2017 13:00:00 -5,5 -8,1 2 1 6 4 W 1003,9 50 -
14.11.2017 12:00:00 -5,8 -8,7 2 1 6 3 ZO 1004,3 50 -
14.11.2017 11:00:00 -7,0 -9,2 2 1 6 3 O 1004,8 50 -
14.11.2017 10:00:00 -7,6 -9,7 2 1 15 8 Z 1005,5 50 -
14.11.2017 09:00:00 -8,3 -9,8 4 2 9 5 ZZO 1005,9 50 -
14.11.2017 08:00:00 -9,1 -10,6 3 2 10 5 ZO 1006,6 50 -
14.11.2017 07:00:00 -9,4 -10,5 1 1 6 4 OZO 1007,0 50 -
14.11.2017 06:00:00 -8,9 -9,8 2 1 6 3 ZO 1007,8 50 -
14.11.2017 05:00:00 -9,2 -10,5 1 1 4 2 OZO 1008,6 50 -
14.11.2017 04:00:00 -8,3 -9,5 1 1 5 3 Z 1009,1 50 -
14.11.2017 03:00:00 -7,6 -8,8 2 1 9 5 NO 1009,3 50 -
14.11.2017 02:00:00 -7,1 -8,6 1 1 10 5 N 1010,1 50 -
14.11.2017 01:00:00 -6,8 -8,2 3 2 11 6 NNO 1010,4 50 -
14.11.2017 00:00:00 -6,3 -7,7 3 1 9 5 NNO 1010,5 50 -
13.11.2017 23:00:00 -5,8 -7,3 4 2 13 7 NNW 1010,7 50 -
13.11.2017 22:00:00 -5,1 -6,8 3 2 8 4 NW 1011,2 50 -
13.11.2017 21:00:00 -5,3 -7,1 3 2 11 6 NNW 1011,4 50 -
13.11.2017 20:00:00 -4,8 -6,9 3 2 16 9 ONO 1011,3 50 -
13.11.2017 19:00:00 -4,2 -6,9 5 3 22 12 W 1011,1 50 -
13.11.2017 18:00:00 -3,8 -6,7 5 3 24 13 WNW 1011,3 50 -
13.11.2017 17:00:00 -3,5 -6,6 8 5 24 13 W 1011,2 50 -
13.11.2017 16:00:00 -2,8 -5,9 6 3 26 14 WNW 1010,8 50 -
13.11.2017 15:00:00 -2,7 -6,0 7 4 22 12 WNW 1010,6 50 -
13.11.2017 14:00:00 -2,2 -5,7 8 4 36 19 WNW 1010,5 50 0,0
13.11.2017 13:00:00 -1,9 -5,1 9 5 30 16 W 1010,2 50 0,0
13.11.2017 12:00:00 -1,9 -5,6 8 5 25 14 WNW 1010,1 50 0,0
13.11.2017 11:00:00 -2,3 -5,6 7 4 29 16 W 1010,0 50 0,0
13.11.2017 10:00:00 -2,1 -4,9 8 4 22 12 WNW 1009,2 50 0,0
13.11.2017 09:00:00 -2,6 -5,2 5 3 19 10 WNW 1009,1 50 0,0
13.11.2017 08:00:00 -2,7 -4,7 7 4 23 13 WNW 1008,6 28 0,0
13.11.2017 07:00:00 -2,7 -4,4 5 3 16 9 WNW 1007,8 5 0,0
13.11.2017 06:00:00 -2,4 -4,3 4 2 14 8 WNW 1007,2 13 0,0
13.11.2017 05:00:00 -2,3 -4,2 5 3 16 8 WNW 1006,9 33 0,0
13.11.2017 04:00:00 -2,9 -4,9 4 2 21 11 WNW 1006,2 50 0,0
13.11.2017 03:00:00 -2,5 -4,4 9 5 23 13 W 1005,8 9 0,0
13.11.2017 02:00:00 -2,3 -5,3 6 4 24 13 WNW 1004,7 50 0,0
13.11.2017 01:00:00 -1,5 -4,7 7 4 34 19 W 1003,6 50 0,0
13.11.2017 00:00:00 -1,7 -3,6 5 3 18 10 W 1002,8 50 0,0
12.11.2017 23:00:00 -2,6 -4,2 5 3 16 9 W 1002,2 50 0,0
12.11.2017 22:00:00 -3,1 -4,8 4 2 15 8 WZW 1001,6 50 0,0
12.11.2017 21:00:00 -3,6 -5,8 3 2 19 11 WZW 1000,2 50 0,0
12.11.2017 20:00:00 -3,7 -6,0 3 2 18 10 Z 999,6 50 0,0
12.11.2017 19:00:00 -3,7 -5,2 3 2 11 6 Z 998,9 50 0,0
12.11.2017 18:00:00 -3,1 -4,2 2 1 9 5 ZW 997,7 50 0,0
12.11.2017 17:00:00 -2,5 -3,6 3 2 14 7 WNW 996,2 50 0,0
12.11.2017 16:00:00 -1,8 -2,5 2 1 4 2 NO 994,5 2,8 0,0
12.11.2017 15:00:00 -1,5 -2,3 1 0 4 2 NW 993,1 50 0,0
12.11.2017 14:00:00 -1,2 -2,3 1 1 8 4 WZW 992,6 50 0,0
12.11.2017 13:00:00 -1,3 -2,3 1 1 8 4 WZW 992,5 50 0,0
12.11.2017 12:00:00 -0,7 -2,1 5 3 9 5 W 992,3 50 0,0
12.11.2017 11:00:00 -1,7 -2,7 1 1 9 5 ZW 992,1 24 0,0
12.11.2017 10:00:00 -2,2 -3,2 1 1 9 5 WNW 991,8 50 0,0
12.11.2017 09:00:00 -3,8 -4,6 1 1 8 4 ONO 991,6 50 0,0
12.11.2017 08:00:00 -4,9 -5,6 1 1 4 2 W 991,4 32 0,0
12.11.2017 07:00:00 -4,8 -5,5 2 1 5 3 WNW 990,9 50 0,0
12.11.2017 06:00:00 -5,9 -6,6 1 1 6 3 NNW 990,4 50 0,0
12.11.2017 05:00:00 -5,0 -5,5 4 2 10 6 NNW 990,0 16 0,0
12.11.2017 04:00:00 -6,8 -7,7 1 0 3 2 N 990,3 10 0,0
12.11.2017 03:00:00 -7,6 -8,7 1 1 4 2 NNO 990,4 50 0,0
12.11.2017 02:00:00 -7,4 -8,5 2 1 5 3 ONO 990,5 50 0,0
12.11.2017 01:00:00 -7,6 -8,7 3 1 4 2 NW 990,6 50 0,0
12.11.2017 00:00:00 -8,2 -9,1 2 1 5 3 OZO 990,8 50 0,0
11.11.2017 23:00:00 -8,9 -9,7 2 1 4 2 ONO 990,8 50 0,0
11.11.2017 22:00:00 -9,2 -10,0 2 1 5 3 NO 991,1 50 0,0
11.11.2017 21:00:00 -7,7 -8,9 2 1 10 5 O 990,8 50 0,0
11.11.2017 20:00:00 -7,5 -8,7 2 1 4 2 O 990,8 50 0,0
11.11.2017 19:00:00 -7,6 -9,1 2 1 7 4 O 991,0 50 0,0
11.11.2017 18:00:00 -7,6 -9,1 1 1 5 3 Z 990,9 50 0,0

tt = temperatuur
td = dauwpunt
ff = windsnelheid
fx = windstoten
dd = windrichting
ppp = luchtdruk
vv = zicht
rr = neerslag

Weerstations in de omgeving